| time (UTC) | temp F | wind direction | speed MPH | gust MPH | rain 1hr in | rain 24hr in | rain mn in | humidity % | barometer mb |
| 20260506145603 | 64 | 86 | 2.0 | 6.0 | 0.00 | 0.44 | 0.44 | 88 | 1011.4 |
| 20260506145204 | 64 | 86 | 1.0 | 6.0 | 0.00 | 0.44 | 0.44 | 89 | 1011.4 |
| 20260506144804 | 64 | 76 | 4.0 | 6.0 | 0.00 | 0.44 | 0.44 | 87 | 1011.5 |
| 20260506144404 | 64 | 58 | 0.0 | 4.0 | 0.00 | 0.44 | 0.44 | 88 | 1011.4 |
| 20260506144003 | 64 | 56 | 2.0 | 6.0 | 0.00 | 0.44 | 0.44 | 88 | 1011.4 |
| 20260506143817 | 63 | 45 | 0.0 | 6.0 | 0.00 | 0.44 | 0.44 | 89 | 1011.6 |
| 20260506143203 | 63 | 23 | 1.0 | 6.0 | 0.00 | 0.44 | 0.44 | 92 | 1011.6 |
| 20260506142803 | 63 | 55 | 0.0 | 7.0 | 0.00 | 0.44 | 0.44 | 93 | 1011.5 |
| 20260506142404 | 62 | 72 | 3.0 | 8.0 | 0.00 | 0.44 | 0.44 | 92 | 1011.4 |
| 20260506142003 | 62 | 69 | 2.0 | 8.0 | 0.00 | 0.44 | 0.44 | 93 | 1011.3 |
| 20260506141603 | 63 | 60 | 2.0 | 7.0 | 0.00 | 0.44 | 0.44 | 94 | 1011.3 |
| 20260506141203 | 63 | 53 | 2.0 | 7.0 | 0.00 | 0.44 | 0.44 | 97 | 1011.5 |
| 20260506140803 | 63 | 59 | 2.0 | 6.0 | 0.01 | 0.44 | 0.44 | 97 | 1011.5 |
| 20260506140403 | 63 | 72 | 2.0 | 6.0 | 0.04 | 0.44 | 0.44 | 98 | 1011.7 |
| 20260506140003 | 63 | 77 | 3.0 | 4.0 | 0.06 | 0.44 | 0.44 | 98 | 1011.3 |
| 20260506135603 | 62 | 61 | 2.0 | 4.0 | 0.12 | 0.44 | 0.44 | 98 | 1011.5 |
| 20260506135203 | 62 | 46 | 1.0 | 4.0 | 0.18 | 0.44 | 0.44 | 99 | 1011.5 |
| 20260506134804 | 63 | 50 | 2.0 | 4.0 | 0.22 | 0.44 | 0.44 | 99 | 1011.5 |
| 20260506134404 | 63 | 38 | 1.0 | 7.0 | 0.24 | 0.44 | 0.44 | 99 | 1011.3 |
| 20260506134004 | 62 | 39 | 2.0 | 7.0 | 0.24 | 0.44 | 0.44 | 99 | 1011.4 |
| 20260506133813 | 62 | 36 | 2.0 | 7.0 | 0.24 | 0.44 | 0.44 | 99 | 1011.7 |
| 20260506133203 | 63 | 24 | 0.0 | 4.0 | 0.25 | 0.44 | 0.44 | 99 | 1011.8 |
| 20260506132803 | 62 | 28 | 2.0 | 4.0 | 0.25 | 0.44 | 0.44 | 99 | 1011.7 |
| 20260506132403 | 62 | 38 | 2.0 | 4.0 | 0.25 | 0.44 | 0.44 | 99 | 1011.9 |
| 20260506132003 | 62 | 45 | 2.0 | 4.0 | 0.25 | 0.44 | 0.44 | 99 | 1012.0 |
| 20260506131603 | 62 | 44 | 2.0 | 4.0 | 0.25 | 0.44 | 0.44 | 99 | 1011.9 |
| 20260506131203 | 62 | 50 | 2.0 | 4.0 | 0.25 | 0.44 | 0.44 | 99 | 1011.9 |
| 20260506130803 | 62 | 71 | 1.0 | 2.0 | 0.24 | 0.43 | 0.43 | 98 | 1012.0 |
| 20260506130403 | 62 | 216 | 0.0 | 2.0 | 0.21 | 0.40 | 0.40 | 98 | 1012.1 |
| 20260506130005 | 62 | 259 | 0.0 | 2.0 | 0.19 | 0.38 | 0.38 | 98 | 1012.1 |
| 20260506125603 | 62 | 254 | 0.0 | 2.0 | 0.13 | 0.32 | 0.32 | 97 | 1012.2 |
| 20260506125203 | 63 | 70 | 0.0 | 2.0 | 0.07 | 0.26 | 0.26 | 96 | 1012.3 |
| 20260506124803 | 63 | 84 | 0.0 | 2.0 | 0.02 | 0.21 | 0.21 | 96 | 1012.1 |
| 20260506124403 | 63 | 88 | 1.0 | 2.0 | 0.01 | 0.20 | 0.20 | 95 | 1012.2 |
| 20260506124214 | 63 | 85 | 0.0 | 2.0 | 0.01 | 0.20 | 0.20 | 95 | 1012.1 |
| 20260506123603 | 63 | 68 | 1.0 | 4.0 | 0.00 | 0.19 | 0.19 | 94 | 1012.1 |
| 20260506123204 | 63 | 59 | 1.0 | 6.0 | 0.00 | 0.19 | 0.19 | 93 | 1011.8 |
| 20260506122803 | 64 | 44 | 1.0 | 6.0 | 0.00 | 0.19 | 0.19 | 93 | 1012.2 |
| 20260506122403 | 64 | 51 | 0.0 | 6.0 | 0.00 | 0.19 | 0.19 | 93 | 1011.9 |
| 20260506122003 | 64 | 57 | 2.0 | 4.0 | 0.00 | 0.19 | 0.19 | 94 | 1011.8 |
| 20260506121604 | 63 | 58 | 2.0 | 4.0 | 0.00 | 0.19 | 0.19 | 94 | 1012.0 |
| 20260506121415 | 63 | 62 | 2.0 | 4.0 | 0.00 | 0.19 | 0.19 | 94 | 1012.0 |
| 20260506120804 | 64 | 63 | 2.0 | 4.0 | 0.00 | 0.19 | 0.19 | 93 | 1012.2 |
| 20260506120403 | 64 | 74 | 1.0 | 7.0 | 0.00 | 0.19 | 0.19 | 93 | 1012.2 |
| 20260506120213 | 63 | 77 | 1.0 | 7.0 | 0.00 | 0.19 | 0.19 | 93 | 1012.2 |
| 20260506115603 | 63 | 91 | 1.0 | 7.0 | 0.00 | 0.19 | 0.19 | 92 | 1012.2 |
| 20260506115204 | 64 | 95 | 2.0 | 6.0 | 0.00 | 0.19 | 0.19 | 91 | 1012.3 |
| 20260506114803 | 64 | 92 | 3.0 | 6.0 | 0.00 | 0.19 | 0.19 | 91 | 1012.2 |
| 20260506114404 | 64 | 97 | 3.0 | 7.0 | 0.00 | 0.19 | 0.19 | 90 | 1012.4 |
| 20260506114003 | 64 | 98 | 1.0 | 7.0 | 0.00 | 0.19 | 0.19 | 90 | 1012.3 |
| 20260506113603 | 64 | 95 | 3.0 | 7.0 | 0.00 | 0.19 | 0.19 | 89 | 1012.3 |
| 20260506113204 | 64 | 92 | 2.0 | 7.0 | 0.00 | 0.19 | 0.19 | 89 | 1012.6 |
| 20260506112803 | 65 | 83 | 2.0 | 6.0 | 0.00 | 0.19 | 0.19 | 88 | 1012.5 |
| 20260506112403 | 64 | 83 | 2.0 | 7.0 | 0.00 | 0.19 | 0.19 | 89 | 1012.6 |
| 20260506112217 | 65 | 75 | 4.0 | 7.0 | 0.00 | 0.19 | 0.19 | 88 | 1012.6 |
| 20260506111816 | 64 | 69 | 1.0 | 7.0 | 0.00 | 0.19 | 0.19 | 89 | 1012.8 |
| 20260506111204 | 65 | 74 | 2.0 | 4.0 | 0.00 | 0.19 | 0.19 | 88 | 1012.5 |
| 20260506110803 | 65 | 77 | 1.0 | 6.0 | 0.00 | 0.19 | 0.19 | 89 | 1012.7 |
| 20260506110403 | 64 | 79 | 1.0 | 6.0 | 0.00 | 0.19 | 0.19 | 90 | 1012.6 |
| 20260506110004 | 64 | 78 | 3.0 | 6.0 | 0.00 | 0.19 | 0.19 | 90 | 1012.9 |
| 20260506105603 | 63 | 81 | 3.0 | 6.0 | 0.00 | 0.19 | 0.19 | 92 | 1012.7 |
| 20260506105204 | 62 | 86 | 2.0 | 4.0 | 0.00 | 0.19 | 0.19 | 93 | 1012.9 |
| 20260506104804 | 62 | 80 | 2.0 | 6.0 | 0.00 | 0.19 | 0.19 | 95 | 1013.0 |
| 20260506104616 | 62 | 81 | 2.0 | 6.0 | 0.00 | 0.19 | 0.19 | 95 | 1012.8 |
| 20260506104004 | 62 | 83 | 1.0 | 7.0 | 0.00 | 0.19 | 0.19 | 95 | 1013.0 |
| 20260506103603 | 62 | 79 | 1.0 | 7.0 | 0.00 | 0.20 | 0.19 | 94 | 1013.0 |
| 20260506103204 | 62 | 73 | 4.0 | 7.0 | 0.01 | 0.20 | 0.19 | 93 | 1012.8 |
| 20260506102803 | 62 | 57 | 1.0 | 4.0 | 0.01 | 0.20 | 0.19 | 93 | 1012.7 |
| 20260506102404 | 62 | 59 | 2.0 | 4.0 | 0.01 | 0.20 | 0.19 | 93 | 1013.0 |
| 20260506102004 | 61 | 70 | 1.0 | 4.0 | 0.02 | 0.20 | 0.19 | 95 | 1013.0 |
| 20260506101604 | 61 | 81 | 2.0 | 4.0 | 0.02 | 0.20 | 0.19 | 95 | 1013.1 |
| 20260506101203 | 61 | 91 | 0.0 | 4.0 | 0.04 | 0.20 | 0.19 | 96 | 1013.3 |
| 20260506100803 | 61 | 94 | 2.0 | 4.0 | 0.05 | 0.20 | 0.19 | 95 | 1013.2 |
| 20260506100404 | 61 | 92 | 0.0 | 4.0 | 0.05 | 0.20 | 0.19 | 97 | 1013.2 |
| 20260506095815 | 61 | 81 | 1.0 | 4.0 | 0.05 | 0.20 | 0.19 | 97 | 1009.5 |
| 20260506095203 | 61 | 86 | 2.0 | 4.0 | 0.05 | 0.20 | 0.19 | 97 | 1009.4 |
| 20260506094804 | 61 | 90 | 0.0 | 4.0 | 0.05 | 0.20 | 0.19 | 98 | 1009.4 |
| 20260506094403 | 61 | 99 | 2.0 | 4.0 | 0.05 | 0.20 | 0.19 | 98 | 1009.5 |
| 20260506094004 | 61 | 94 | 0.0 | 4.0 | 0.05 | 0.20 | 0.19 | 98 | 1009.6 |
| 20260506093603 | 61 | 94 | 2.0 | 4.0 | 0.05 | 0.20 | 0.19 | 97 | 1009.5 |
| 20260506093203 | 61 | 87 | 3.0 | 4.0 | 0.04 | 0.19 | 0.18 | 96 | 1009.6 |
| 20260506092803 | 61 | 91 | 1.0 | 4.0 | 0.04 | 0.19 | 0.18 | 96 | 1009.4 |
| 20260506092404 | 61 | 95 | 3.0 | 4.0 | 0.04 | 0.19 | 0.18 | 95 | 1009.7 |
| 20260506092004 | 61 | 95 | 3.0 | 4.0 | 0.02 | 0.18 | 0.17 | 95 | 1009.6 |
| 20260506091603 | 61 | 92 | 2.0 | 4.0 | 0.02 | 0.18 | 0.17 | 94 | 1009.7 |
| 20260506091203 | 61 | 85 | 2.0 | 4.0 | 0.01 | 0.17 | 0.15 | 93 | 1009.5 |
| 20260506090804 | 62 | 81 | 0.0 | 4.0 | 0.00 | 0.17 | 0.14 | 93 | 1009.7 |
| 20260506090403 | 62 | 79 | 2.0 | 4.0 | 0.00 | 0.17 | 0.14 | 91 | 1009.6 |
| 20260506090004 | 63 | 69 | 1.0 | 2.0 | 0.00 | 0.18 | 0.14 | 91 | 1009.4 |
| 20260506085604 | 63 | 55 | 0.0 | 2.0 | 0.00 | 0.18 | 0.14 | 90 | 1009.2 |
| 20260506085203 | 63 | 59 | 0.0 | 2.0 | 0.00 | 0.19 | 0.14 | 89 | 1009.3 |
| 20260506084803 | 63 | 86 | 0.0 | 2.0 | 0.00 | 0.19 | 0.14 | 90 | 1009.2 |
| 20260506084404 | 64 | 98 | 0.0 | 2.0 | 0.00 | 0.20 | 0.14 | 89 | 1009.1 |
| 20260506084003 | 64 | 90 | 0.0 | 2.0 | 0.00 | 0.20 | 0.14 | 88 | 1009.1 |
| 20260506083603 | 63 | 90 | 0.0 | 2.0 | 0.00 | 0.20 | 0.14 | 90 | 1009.1 |
| 20260506083203 | 63 | 90 | 0.0 | 2.0 | 0.00 | 0.20 | 0.14 | 92 | 1009.1 |
| 20260506082803 | 62 | 90 | 0.0 | 2.0 | 0.00 | 0.20 | 0.14 | 90 | 1009.2 |
| 20260506082403 | 62 | 90 | 0.0 | 2.0 | 0.00 | 0.20 | 0.14 | 92 | 1009.3 |
| 20260506082003 | 62 | 90 | 1.0 | 2.0 | 0.00 | 0.20 | 0.14 | 93 | 1009.0 |
| 20260506081814 | 62 | 90 | 0.0 | 2.0 | 0.00 | 0.20 | 0.14 | 93 | 1009.1 |
| 20260506081413 | 62 | 0 | 0.0 | 0.0 | 0.00 | 0.20 | 0.14 | 92 | 1009.1 |
| 20260506080804 | 62 | 0 | 0.0 | 0.0 | 0.00 | 0.20 | 0.14 | 95 | 1009.1 |
| 20260506080403 | 61 | 90 | 0.0 | 2.0 | 0.00 | 0.20 | 0.14 | 98 | 1009.2 |
| 20260506073205 | 60 | 90 | 0.0 | 2.0 | 0.01 | 0.20 | 0.14 | 99 | 1009.5 |
| 20260506072803 | 60 | 90 | 0.0 | 2.0 | 0.01 | 0.20 | 0.14 | 99 | 1009.5 |
| 20260506072403 | 60 | 90 | 0.0 | 2.0 | 0.01 | 0.20 | 0.14 | 99 | 1009.4 |
| 20260506072003 | 60 | 90 | 1.0 | 2.0 | 0.01 | 0.20 | 0.14 | 99 | 1009.2 |
| 20260506071604 | 60 | 0 | 0.0 | 0.0 | 0.01 | 0.20 | 0.14 | 99 | 1009.3 |
| 20260506071204 | 60 | 0 | 0.0 | 0.0 | 0.01 | 0.20 | 0.14 | 99 | 1009.4 |
| 20260506070803 | 60 | 0 | 0.0 | 0.0 | 0.01 | 0.20 | 0.14 | 99 | 1009.3 |
| 20260506070404 | 59 | 0 | 0.0 | 0.0 | 0.01 | 0.20 | 0.14 | 99 | 1009.4 |
| 20260506062216 | 58 | 22 | 0.0 | 2.0 | 0.00 | 0.19 | 0.13 | 99 | 1009.2 |
| 20260506061603 | 58 | 0 | 0.0 | 0.0 | 0.00 | 0.19 | 0.13 | 99 | 1009.2 |
| 20260506061203 | 58 | 0 | 0.0 | 0.0 | 0.00 | 0.19 | 0.13 | 99 | 1009.2 |
| 20260506060803 | 58 | 90 | 0.0 | 2.0 | 0.00 | 0.19 | 0.13 | 99 | 1009.1 |
| 20260506060403 | 58 | 90 | 0.0 | 2.0 | 0.00 | 0.19 | 0.13 | 99 | 1009.3 |
| 20260506060218 | 57 | 90 | 0.0 | 2.0 | 0.00 | 0.19 | 0.13 | 99 | 1009.4 |
| 20260506051203 | 56 | 97 | 0.0 | 2.0 | 0.00 | 0.19 | 0.13 | 99 | 1009.5 |
| 20260506050803 | 56 | 110 | 1.0 | 2.0 | 0.00 | 0.19 | 0.13 | 99 | 1009.7 |
| 20260506050403 | 56 | 0 | 0.0 | 0.0 | 0.00 | 0.19 | 0.13 | 99 | 1009.7 |
| 20260506044803 | 56 | 0 | 0.0 | 0.0 | 0.00 | 0.19 | 0.13 | 99 | 1009.7 |
| 20260506044404 | 56 | 0 | 0.0 | 0.0 | 0.00 | 0.19 | 0.13 | 99 | 1009.5 |
| 20260506044004 | 56 | 0 | 0.0 | 0.0 | 0.01 | 0.19 | 0.13 | 99 | 1009.7 |
| 20260506043603 | 56 | 266 | 0.0 | 2.0 | 0.06 | 0.19 | 0.13 | 99 | 1009.6 |
| 20260506043204 | 56 | 267 | 0.0 | 2.0 | 0.07 | 0.19 | 0.13 | 99 | 1009.4 |
| 20260506042804 | 56 | 293 | 0.0 | 4.0 | 0.12 | 0.19 | 0.13 | 99 | 1009.2 |
| 20260506042403 | 56 | 324 | 0.0 | 4.0 | 0.13 | 0.19 | 0.13 | 99 | 1009.2 |
| 20260506042217 | 56 | 331 | 0.0 | 4.0 | 0.13 | 0.19 | 0.13 | 99 | 1009.1 |
| 20260506041603 | 56 | 350 | 2.0 | 4.0 | 0.13 | 0.19 | 0.13 | 99 | 1008.9 |
| 20260506041203 | 56 | 330 | 0.0 | 2.0 | 0.13 | 0.19 | 0.13 | 99 | 1009.1 |
| 20260506040803 | 56 | 285 | 0.0 | 4.0 | 0.13 | 0.19 | 0.13 | 99 | 1009.0 |
| 20260506040404 | 56 | 291 | 0.0 | 4.0 | 0.13 | 0.19 | 0.13 | 99 | 1009.3 |
| 20260506040003 | 56 | 332 | 1.0 | 4.0 | 0.13 | 0.19 | 0.13 | 99 | 1009.2 |
| 20260506035605 | 56 | 13 | 1.0 | 4.0 | 0.13 | 0.19 | 0.13 | 99 | 1009.3 |
| 20260506035203 | 56 | 10 | 2.0 | 4.0 | 0.13 | 0.19 | 0.13 | 99 | 1009.3 |
| 20260506034804 | 56 | 358 | 2.0 | 4.0 | 0.13 | 0.19 | 0.13 | 99 | 1009.2 |
| 20260506034403 | 56 | 354 | 1.0 | 2.0 | 0.13 | 0.19 | 0.13 | 99 | 1008.9 |
| 20260506034216 | 56 | 355 | 1.0 | 2.0 | 0.12 | 0.18 | 0.12 | 99 | 1009.3 |
| 20260506033604 | 56 | 40 | 0.0 | 2.0 | 0.07 | 0.13 | 0.07 | 99 | 1009.6 |
| 20260506033204 | 56 | 59 | 0.0 | 2.0 | 0.06 | 0.12 | 0.06 | 99 | 1009.3 |
| 20260506032804 | 56 | 119 | 0.0 | 2.0 | 0.01 | 0.07 | 0.01 | 99 | 1009.4 |
| 20260506032403 | 56 | 164 | 0.0 | 2.0 | 0.00 | 0.06 | 0.00 | 98 | 1009.6 |
| 20260506032003 | 56 | 253 | 0.0 | 2.0 | 0.00 | 0.06 | 0.00 | 98 | 1010.0 |
| 20260506031817 | 56 | 270 | 0.0 | 2.0 | 0.00 | 0.06 | 0.00 | 98 | 1009.9 |
| 20260506031204 | 56 | 270 | 1.0 | 2.0 | 0.00 | 0.06 | 0.00 | 98 | 1009.7 |
| 20260506031016 | 56 | 270 | 0.0 | 2.0 | 0.00 | 0.06 | 0.00 | 98 | 1009.7 |
| 20260506030404 | 56 | 0 | 0.0 | 0.0 | 0.00 | 0.06 | 0.00 | 98 | 1009.7 |
| 20260506030004 | 56 | 270 | 0.0 | 2.0 | 0.00 | 0.06 | 0.00 | 98 | 1009.8 |
| 20260506025603 | 56 | 270 | 0.0 | 2.0 | 0.00 | 0.06 | 0.00 | 98 | 1009.8 |
| 20260506025203 | 56 | 270 | 0.0 | 2.0 | 0.00 | 0.06 | 0.00 | 98 | 1009.7 |
| 20260506024803 | 56 | 270 | 0.0 | 2.0 | 0.00 | 0.06 | 0.00 | 98 | 1009.8 |
| 20260506024404 | 56 | 270 | 0.0 | 2.0 | 0.00 | 0.06 | 0.00 | 98 | 1009.8 |
| 20260506024005 | 56 | 283 | 0.0 | 2.0 | 0.00 | 0.06 | 0.00 | 98 | 1010.0 |
| 20260506023816 | 56 | 282 | 0.0 | 2.0 | 0.00 | 0.06 | 0.00 | 98 | 1009.9 |
| 20260506023204 | 56 | 278 | 0.0 | 2.0 | 0.00 | 0.06 | 0.00 | 98 | 1009.9 |
| 20260506022805 | 56 | 270 | 1.0 | 2.0 | 0.00 | 0.06 | 0.00 | 98 | 1010.1 |
| 20260506022404 | 56 | 261 | 0.0 | 2.0 | 0.00 | 0.06 | 0.00 | 98 | 1010.0 |
| 20260506022003 | 56 | 267 | 0.0 | 2.0 | 0.00 | 0.06 | 0.00 | 98 | 1010.0 |
| 20260506021603 | 56 | 271 | 0.0 | 2.0 | 0.00 | 0.06 | 0.00 | 98 | 1010.1 |
| 20260506021203 | 56 | 322 | 0.0 | 2.0 | 0.00 | 0.06 | 0.00 | 98 | 1009.8 |
| 20260506020804 | 56 | 344 | 0.0 | 2.0 | 0.00 | 0.06 | 0.00 | 98 | 1010.1 |
| 20260506020403 | 56 | 346 | 1.0 | 2.0 | 0.00 | 0.06 | 0.00 | 98 | 1010.1 |
| 20260506020004 | 56 | 299 | 0.0 | 2.0 | 0.00 | 0.06 | 0.00 | 97 | 1010.2 |
| 20260506015604 | 56 | 299 | 0.0 | 2.0 | 0.00 | 0.06 | 0.00 | 97 | 1010.2 |
| 20260506015203 | 56 | 290 | 0.0 | 2.0 | 0.00 | 0.06 | 0.00 | 97 | 1010.0 |
| 20260506014803 | 56 | 301 | 0.0 | 2.0 | 0.00 | 0.06 | 0.00 | 97 | 1010.2 |
| 20260506014403 | 56 | 304 | 0.0 | 2.0 | 0.00 | 0.06 | 0.00 | 97 | 1010.4 |
| 20260506014003 | 56 | 311 | 0.0 | 2.0 | 0.00 | 0.06 | 0.00 | 97 | 1010.3 |
| 20260506013603 | 56 | 326 | 0.0 | 2.0 | 0.00 | 0.06 | 0.00 | 97 | 1010.2 |
| 20260506013204 | 56 | 333 | 1.0 | 4.0 | 0.00 | 0.06 | 0.00 | 97 | 1010.3 |
| 20260506012804 | 56 | 323 | 0.0 | 4.0 | 0.00 | 0.06 | 0.00 | 97 | 1010.3 |
| 20260506012404 | 56 | 320 | 2.0 | 4.0 | 0.00 | 0.06 | 0.00 | 97 | 1010.4 |
| 20260506012004 | 56 | 316 | 1.0 | 2.0 | 0.00 | 0.06 | 0.00 | 97 | 1010.3 |
| 20260506011603 | 56 | 324 | 0.0 | 2.0 | 0.00 | 0.06 | 0.00 | 98 | 1010.5 |
| 20260506011203 | 56 | 335 | 1.0 | 2.0 | 0.00 | 0.06 | 0.00 | 98 | 1010.6 |
| 20260506010803 | 56 | 332 | 0.0 | 2.0 | 0.00 | 0.06 | 0.00 | 98 | 1010.4 |
| 20260506010404 | 56 | 337 | 1.0 | 4.0 | 0.00 | 0.06 | 0.00 | 98 | 1010.3 |
| 20260506010005 | 56 | 348 | 0.0 | 4.0 | 0.00 | 0.06 | 0.00 | 98 | 1010.2 |
| 20260506005604 | 56 | 354 | 1.0 | 2.0 | 0.00 | 0.06 | 0.00 | 98 | 1010.6 |
| 20260506005203 | 56 | 353 | 0.0 | 2.0 | 0.00 | 0.06 | 0.00 | 98 | 1010.5 |
| 20260506004804 | 56 | 337 | 0.0 | 2.0 | 0.00 | 0.06 | 0.00 | 98 | 1010.5 |
| 20260506004613 | 56 | 337 | 0.0 | 2.0 | 0.00 | 0.06 | 0.00 | 98 | 1010.5 |
| 20260506004004 | 56 | 7 | 0.0 | 2.0 | 0.00 | 0.06 | 0.00 | 98 | 1010.5 |
| 20260506003603 | 56 | 4 | 0.0 | 2.0 | 0.00 | 0.06 | 0.00 | 98 | 1010.8 |
| 20260506003204 | 56 | 328 | 0.0 | 2.0 | 0.00 | 0.06 | 0.00 | 98 | 1010.7 |
| 20260506002803 | 56 | 293 | 0.0 | 2.0 | 0.00 | 0.06 | 0.00 | 98 | 1010.6 |
| 20260506002403 | 56 | 272 | 0.0 | 2.0 | 0.00 | 0.06 | 0.00 | 98 | 1010.5 |
| 20260506002003 | 56 | 270 | 0.0 | 2.0 | 0.00 | 0.06 | 0.00 | 98 | 1010.7 |
| 20260506001604 | 56 | 304 | 0.0 | 2.0 | 0.00 | 0.06 | 0.00 | 98 | 1010.7 |
| 20260506001204 | 56 | 297 | 0.0 | 2.0 | 0.00 | 0.06 | 0.00 | 98 | 1010.7 |
| 20260506000804 | 56 | 292 | 0.0 | 2.0 | 0.00 | 0.06 | 0.00 | 98 | 1010.5 |
| 20260506000403 | 56 | 299 | 0.0 | 2.0 | 0.00 | 0.06 | 0.00 | 97 | 1010.6 |
| 20260506000004 | 56 | 305 | 0.0 | 2.0 | 0.00 | 0.06 | 0.00 | 97 | 1010.6 |
| 20260505235816 | 56 | 305 | 0.0 | 2.0 | 0.00 | 0.06 | 0.00 | 97 | 1010.9 |
| 20260505235415 | 56 | 270 | 0.0 | 2.0 | 0.00 | 0.06 | 0.00 | 97 | 1010.7 |
| 20260505235015 | 57 | 325 | 0.0 | 4.0 | 0.00 | 0.06 | 0.00 | 97 | 1010.5 |
| 20260505234404 | 57 | 352 | 0.0 | 4.0 | 0.00 | 0.06 | 0.00 | 97 | 1010.9 |
| 20260505234003 | 57 | 347 | 0.0 | 4.0 | 0.00 | 0.06 | 0.00 | 97 | 1010.7 |
| 20260505233813 | 57 | 346 | 2.0 | 4.0 | 0.00 | 0.06 | 0.00 | 97 | 1010.6 |
| 20260505233203 | 57 | 317 | 0.0 | 4.0 | 0.00 | 0.06 | 0.00 | 96 | 1010.5 |
| 20260505232804 | 57 | 318 | 0.0 | 4.0 | 0.00 | 0.06 | 0.00 | 96 | 1010.5 |
| 20260505232403 | 57 | 322 | 1.0 | 4.0 | 0.00 | 0.06 | 0.00 | 96 | 1010.7 |
| 20260505232003 | 57 | 330 | 2.0 | 4.0 | 0.00 | 0.06 | 0.00 | 96 | 1010.9 |
| 20260505231603 | 57 | 334 | 1.0 | 4.0 | 0.00 | 0.06 | 0.00 | 97 | 1010.8 |
| 20260505231204 | 57 | 338 | 0.0 | 4.0 | 0.00 | 0.06 | 0.00 | 97 | 1010.8 |
| 20260505230804 | 57 | 327 | 1.0 | 4.0 | 0.00 | 0.06 | 0.00 | 97 | 1010.7 |
| 20260505230404 | 57 | 321 | 2.0 | 4.0 | 0.00 | 0.06 | 0.00 | 97 | 1011.0 |
| 20260505230005 | 56 | 303 | 2.0 | 4.0 | 0.00 | 0.06 | 0.00 | 97 | 1010.9 |
| 20260505225603 | 56 | 297 | 2.0 | 4.0 | 0.00 | 0.06 | 0.00 | 97 | 1010.7 |
| 20260505225204 | 56 | 317 | 0.0 | 4.0 | 0.00 | 0.06 | 0.00 | 97 | 1011.0 |
| 20260505224803 | 56 | 7 | 2.0 | 4.0 | 0.00 | 0.06 | 0.00 | 97 | 1011.0 |
| 20260505224404 | 56 | 357 | 1.0 | 4.0 | 0.00 | 0.06 | 0.00 | 97 | 1011.2 |
| 20260505224003 | 57 | 342 | 1.0 | 4.0 | 0.00 | 0.06 | 0.00 | 97 | 1011.1 |
| 20260505223603 | 57 | 338 | 1.0 | 4.0 | 0.00 | 0.06 | 0.00 | 97 | 1011.1 |
| 20260505223413 | 57 | 344 | 1.0 | 4.0 | 0.00 | 0.06 | 0.00 | 97 | 1011.1 |
| 20260505222803 | 57 | 342 | 2.0 | 4.0 | 0.00 | 0.06 | 0.00 | 97 | 1011.1 |
| 20260505222403 | 57 | 337 | 1.0 | 4.0 | 0.00 | 0.06 | 0.00 | 97 | 1011.1 |
| 20260505222004 | 57 | 340 | 2.0 | 4.0 | 0.00 | 0.06 | 0.00 | 97 | 1011.4 |
| 20260505221603 | 57 | 343 | 2.0 | 4.0 | 0.00 | 0.06 | 0.00 | 97 | 1011.3 |
| 20260505221204 | 57 | 342 | 2.0 | 7.0 | 0.00 | 0.06 | 0.00 | 97 | 1011.6 |
| 20260505220804 | 57 | 341 | 1.0 | 7.0 | 0.00 | 0.06 | 0.00 | 97 | 1011.5 |
| 20260505220404 | 57 | 343 | 1.0 | 7.0 | 0.00 | 0.06 | 0.00 | 97 | 1011.5 |
| 20260505220008 | 57 | 336 | 3.0 | 4.0 | 0.00 | 0.06 | 0.00 | 97 | 1011.4 |
| 20260505215604 | 57 | 329 | 2.0 | 6.0 | 0.00 | 0.06 | 0.06 | 97 | 1011.5 |
| 20260505215204 | 57 | 335 | 1.0 | 6.0 | 0.00 | 0.06 | 0.06 | 97 | 1011.4 |
| 20260505214803 | 57 | 338 | 2.0 | 6.0 | 0.00 | 0.06 | 0.06 | 97 | 1011.4 |
| 20260505214405 | 57 | 341 | 2.0 | 4.0 | 0.00 | 0.06 | 0.06 | 96 | 1011.6 |
| 20260505214004 | 57 | 342 | 1.0 | 4.0 | 0.00 | 0.06 | 0.06 | 96 | 1011.4 |
| 20260505213604 | 57 | 329 | 2.0 | 4.0 | 0.00 | 0.06 | 0.06 | 96 | 1011.5 |
| 20260505213414 | 57 | 332 | 1.0 | 2.0 | 0.00 | 0.06 | 0.06 | 96 | 1011.5 |
| 20260505212804 | 57 | 339 | 1.0 | 4.0 | 0.00 | 0.06 | 0.06 | 96 | 1011.6 |
| 20260505212617 | 57 | 346 | 0.0 | 4.0 | 0.00 | 0.06 | 0.06 | 96 | 1011.8 |
| 20260505212003 | 57 | 346 | 2.0 | 4.0 | 0.00 | 0.06 | 0.06 | 96 | 1011.7 |
| 20260505211603 | 57 | 323 | 2.0 | 4.0 | 0.00 | 0.06 | 0.06 | 96 | 1011.8 |
| 20260505211203 | 58 | 321 | 0.0 | 4.0 | 0.00 | 0.06 | 0.06 | 96 | 1011.7 |
| 20260505210803 | 58 | 354 | 1.0 | 4.0 | 0.00 | 0.06 | 0.06 | 95 | 1011.8 |
| 20260505210403 | 58 | 7 | 1.0 | 4.0 | 0.00 | 0.06 | 0.06 | 95 | 1011.6 |
| 20260505210213 | 58 | 5 | 1.0 | 4.0 | 0.00 | 0.06 | 0.06 | 95 | 1011.8 |
| 20260505205604 | 58 | 331 | 1.0 | 4.0 | 0.00 | 0.06 | 0.06 | 95 | 1011.8 |
| 20260505205204 | 58 | 338 | 1.0 | 6.0 | 0.00 | 0.06 | 0.06 | 95 | 1011.6 |
| 20260505204804 | 58 | 324 | 2.0 | 6.0 | 0.00 | 0.06 | 0.06 | 95 | 1011.6 |
| 20260505204403 | 58 | 331 | 2.0 | 6.0 | 0.00 | 0.06 | 0.06 | 95 | 1011.8 |
| 20260505204004 | 58 | 313 | 1.0 | 4.0 | 0.00 | 0.06 | 0.06 | 95 | 1011.8 |
| 20260505203604 | 58 | 320 | 0.0 | 6.0 | 0.00 | 0.06 | 0.06 | 95 | 1011.6 |
| 20260505203414 | 58 | 312 | 2.0 | 6.0 | 0.00 | 0.06 | 0.06 | 95 | 1011.8 |
| 20260505202803 | 58 | 332 | 3.0 | 6.0 | 0.00 | 0.06 | 0.06 | 95 | 1011.7 |
| 20260505202404 | 58 | 343 | 1.0 | 6.0 | 0.00 | 0.06 | 0.06 | 95 | 1011.7 |
| 20260505202004 | 58 | 332 | 2.0 | 6.0 | 0.00 | 0.06 | 0.06 | 95 | 1011.7 |
| 20260505201604 | 58 | 327 | 1.0 | 6.0 | 0.00 | 0.06 | 0.06 | 95 | 1011.8 |
| 20260505201203 | 58 | 323 | 4.0 | 6.0 | 0.00 | 0.06 | 0.06 | 95 | 1012.1 |
| 20260505200803 | 58 | 330 | 1.0 | 6.0 | 0.00 | 0.06 | 0.06 | 95 | 1011.7 |
| 20260505200615 | 58 | 340 | 3.0 | 6.0 | 0.00 | 0.06 | 0.06 | 95 | 1011.7 |
| 20260505200003 | 58 | 341 | 1.0 | 6.0 | 0.00 | 0.06 | 0.06 | 95 | 1011.6 |
| 20260505195608 | 58 | 335 | 2.0 | 6.0 | 0.00 | 0.06 | 0.06 | 95 | 1011.8 |
| 20260505195418 | 58 | 337 | 1.0 | 4.0 | 0.00 | 0.06 | 0.06 | 95 | 1011.8 |
| 20260505194805 | 58 | 343 | 2.0 | 4.0 | 0.00 | 0.06 | 0.06 | 95 | 1011.8 |
| 20260505194404 | 58 | 336 | 1.0 | 6.0 | 0.00 | 0.06 | 0.06 | 95 | 1011.7 |
| 20260505194216 | 58 | 345 | 2.0 | 6.0 | 0.00 | 0.06 | 0.06 | 95 | 1011.7 |
| 20260505193815 | 58 | 340 | 2.0 | 6.0 | 0.00 | 0.06 | 0.06 | 95 | 1011.8 |
| 20260505193205 | 58 | 330 | 2.0 | 6.0 | 0.00 | 0.06 | 0.06 | 95 | 1011.5 |
| 20260505192813 | 58 | 331 | 2.0 | 6.0 | 0.00 | 0.06 | 0.06 | 95 | 1011.4 |
| 20260505192404 | 58 | 334 | 1.0 | 6.0 | 0.00 | 0.06 | 0.06 | 95 | 1011.7 |
| 20260505192003 | 58 | 343 | 2.0 | 6.0 | 0.00 | 0.06 | 0.06 | 95 | 1011.7 |
| 20260505191604 | 58 | 344 | 2.0 | 4.0 | 0.00 | 0.06 | 0.06 | 95 | 1011.8 |
| 20260505191204 | 58 | 352 | 1.0 | 4.0 | 0.00 | 0.06 | 0.06 | 95 | 1011.7 |
| 20260505190803 | 58 | 340 | 2.0 | 4.0 | 0.00 | 0.06 | 0.06 | 95 | 1011.7 |
| 20260505190404 | 58 | 327 | 2.0 | 4.0 | 0.00 | 0.06 | 0.06 | 95 | 1011.7 |
| 20260505190004 | 58 | 344 | 2.0 | 4.0 | 0.00 | 0.06 | 0.06 | 95 | 1011.7 |
| 20260505185603 | 58 | 329 | 1.0 | 4.0 | 0.00 | 0.06 | 0.06 | 95 | 1011.7 |
| 20260505185204 | 58 | 330 | 1.0 | 4.0 | 0.00 | 0.06 | 0.06 | 95 | 1011.5 |
| 20260505184804 | 58 | 331 | 1.0 | 4.0 | 0.00 | 0.06 | 0.06 | 95 | 1011.7 |
| 20260505184404 | 58 | 329 | 1.0 | 4.0 | 0.00 | 0.06 | 0.06 | 95 | 1011.5 |
| 20260505184217 | 58 | 333 | 2.0 | 4.0 | 0.00 | 0.06 | 0.06 | 95 | 1011.5 |
| 20260505183816 | 58 | 334 | 1.0 | 4.0 | 0.00 | 0.06 | 0.06 | 95 | 1011.5 |
| 20260505183205 | 58 | 349 | 3.0 | 4.0 | 0.00 | 0.06 | 0.06 | 95 | 1011.5 |
| 20260505182803 | 58 | 347 | 2.0 | 6.0 | 0.00 | 0.06 | 0.06 | 95 | 1011.4 |
| 20260505182614 | 58 | 349 | 1.0 | 6.0 | 0.00 | 0.06 | 0.06 | 95 | 1011.4 |
| 20260505182004 | 58 | 335 | 2.0 | 4.0 | 0.00 | 0.06 | 0.06 | 95 | 1011.5 |
| 20260505181604 | 58 | 341 | 2.0 | 4.0 | 0.00 | 0.06 | 0.06 | 95 | 1011.4 |
| 20260505181203 | 58 | 340 | 0.0 | 4.0 | 0.00 | 0.06 | 0.06 | 95 | 1011.2 |
| 20260505181017 | 58 | 335 | 2.0 | 4.0 | 0.00 | 0.06 | 0.06 | 95 | 1011.3 |
| 20260505180616 | 58 | 340 | 1.0 | 4.0 | 0.00 | 0.06 | 0.06 | 95 | 1011.1 |
| 20260505180004 | 58 | 339 | 1.0 | 4.0 | 0.00 | 0.06 | 0.06 | 95 | 1011.3 |
| 20260505175603 | 58 | 333 | 2.0 | 4.0 | 0.00 | 0.06 | 0.06 | 95 | 1011.1 |
| 20260505175204 | 58 | 329 | 2.0 | 4.0 | 0.00 | 0.06 | 0.06 | 94 | 1011.4 |
| 20260505174803 | 58 | 323 | 2.0 | 4.0 | 0.00 | 0.06 | 0.06 | 94 | 1011.3 |
| 20260505174403 | 58 | 334 | 2.0 | 6.0 | 0.00 | 0.06 | 0.06 | 94 | 1011.2 |
| 20260505174004 | 58 | 335 | 2.0 | 6.0 | 0.00 | 0.06 | 0.06 | 94 | 1011.2 |
| 20260505173604 | 59 | 338 | 2.0 | 4.0 | 0.00 | 0.06 | 0.06 | 94 | 1011.2 |
| 20260505173203 | 58 | 347 | 2.0 | 4.0 | 0.00 | 0.06 | 0.06 | 94 | 1011.4 |
| 20260505173015 | 58 | 355 | 1.0 | 4.0 | 0.00 | 0.06 | 0.06 | 94 | 1011.4 |
| 20260505172403 | 58 | 5 | 2.0 | 7.0 | 0.00 | 0.06 | 0.06 | 94 | 1011.3 |
| 20260505172004 | 58 | 360 | 2.0 | 7.0 | 0.00 | 0.06 | 0.06 | 94 | 1011.3 |
| 20260505171603 | 58 | 357 | 3.0 | 8.0 | 0.00 | 0.06 | 0.06 | 94 | 1011.4 |
| 20260505171203 | 58 | 6 | 1.0 | 8.0 | 0.00 | 0.06 | 0.06 | 94 | 1010.9 |
| 20260505170804 | 59 | 6 | 2.0 | 8.0 | 0.00 | 0.06 | 0.06 | 94 | 1011.3 |
| 20260505170403 | 59 | 9 | 2.0 | 7.0 | 0.00 | 0.06 | 0.06 | 94 | 1010.9 |
| 20260505170004 | 59 | 16 | 2.0 | 8.0 | 0.00 | 0.06 | 0.06 | 94 | 1011.1 |
| 20260505165603 | 59 | 15 | 3.0 | 8.0 | 0.00 | 0.06 | 0.06 | 94 | 1011.1 |
| 20260505165203 | 59 | 8 | 3.0 | 8.0 | 0.00 | 0.06 | 0.06 | 94 | 1011.2 |
| 20260505165014 | 59 | 1 | 1.0 | 7.0 | 0.00 | 0.06 | 0.06 | 94 | 1011.1 |
| 20260505164403 | 59 | 350 | 2.0 | 8.0 | 0.00 | 0.06 | 0.06 | 94 | 1011.4 |
| 20260505164003 | 59 | 359 | 2.0 | 8.0 | 0.00 | 0.06 | 0.06 | 94 | 1011.3 |
| 20260505163817 | 59 | 359 | 2.0 | 8.0 | 0.00 | 0.06 | 0.06 | 94 | 1011.1 |
| 20260505163203 | 60 | 340 | 2.0 | 7.0 | 0.00 | 0.06 | 0.06 | 94 | 1011.2 |
| 20260505162803 | 60 | 347 | 2.0 | 4.0 | 0.00 | 0.06 | 0.06 | 94 | 1011.3 |
| 20260505162403 | 60 | 325 | 2.0 | 4.0 | 0.00 | 0.06 | 0.06 | 94 | 1011.2 |
| 20260505162004 | 60 | 334 | 2.0 | 6.0 | 0.00 | 0.06 | 0.06 | 94 | 1011.5 |
| 20260505161603 | 60 | 330 | 2.0 | 6.0 | 0.00 | 0.06 | 0.06 | 94 | 1011.2 |
| 20260505161203 | 60 | 321 | 3.0 | 7.0 | 0.00 | 0.06 | 0.06 | 94 | 1011.3 |
| 20260505160805 | 60 | 319 | 3.0 | 7.0 | 0.00 | 0.06 | 0.06 | 94 | 1011.3 |
| 20260505160405 | 60 | 314 | 2.0 | 7.0 | 0.00 | 0.06 | 0.06 | 94 | 1011.3 |
| 20260505153203 | 61 | 312 | 2.0 | 6.0 | 0.00 | 0.06 | 0.06 | 93 | 1011.5 |
| 20260505152803 | 61 | 329 | 1.0 | 6.0 | 0.00 | 0.06 | 0.06 | 92 | 1011.5 |
| 20260505152403 | 62 | 355 | 3.0 | 4.0 | 0.00 | 0.06 | 0.06 | 91 | 1011.5 |
| 20260505152003 | 62 | 343 | 2.0 | 4.0 | 0.00 | 0.06 | 0.06 | 91 | 1011.4 |
| 20260505151604 | 62 | 315 | 0.0 | 2.0 | 0.00 | 0.06 | 0.06 | 91 | 1011.6 |
| 20260505151204 | 62 | 328 | 0.0 | 4.0 | 0.00 | 0.06 | 0.06 | 91 | 1011.5 |
| 20260505150804 | 62 | 336 | 1.0 | 4.0 | 0.00 | 0.06 | 0.06 | 91 | 1011.4 |
| 20260505150403 | 62 | 355 | 1.0 | 4.0 | 0.00 | 0.06 | 0.06 | 90 | 1011.5 |